Torna al catalogo

FREGAT DEB

LostUNKNOWN
NORAD 45972·DEBRIS·🇷🇺 Russia

Lanciato Jul 18, 2011 da Baikonur Cosmodrome

Loading…

Prossimi Passaggi (prossime 24 ore)

TLE

ObsoletoSource: Space-Track

Epoca: Jul 6, 2021, 16:37 UTC

1 45972U 11037GD  21187.69258633 -.00002237  00000-0 -11208-1 0  9999
2 45972  51.6152 291.1162 1771020 154.8669 215.0083 10.40004735 36088

Traccia FREGAT DEB in tempo reale con AllMySat

Download on the App Store